{"data":{"norad_id":35682,"intl_designator":"2009-041B","name":"DUBAISAT-1","alt_names":[],"object_type":"PAYLOAD","status":"ACTIVE","operator":null,"country":"UAE","launch_date":"2009-07-29","launch_site_code":"TYMSC","launch_vehicle":null,"mission":null,"orbit_class":"UNKNOWN","rcs_meters":1.2204,"size_class":null,"mass_kg":null,"dimensions":null,"purposes":["earth_obs"],"wikipedia_slug":null,"has_3d_model":false,"image_url":null,"decayed_at":null,"tle_current":{"epoch":"2026-05-25T02:14:57.335424Z","epoch_age_seconds":73723,"freshness":"FRESH","line1":"1 35682U 09041B   26145.09371916  .00000765  00000+0  12100-3 0  9996","line2":"2 35682  98.0021 278.6094 0011304 139.8327 220.3719 14.75078492901690","mean_motion":14.75078492,"eccentricity":0.0011304,"inclination_deg":98.0021,"raan_deg":278.6094,"arg_perigee_deg":139.8327,"mean_anomaly_deg":220.3719,"bstar":0.000121,"rev_number":90169,"period_min":97.621923701671,"perigee_km":636.9632768052,"apogee_km":652.84096364821,"semimajor_km":7023.0391202267,"source":"CELESTRAK","updated_at":"2026-05-25T13:38:12.776505Z"}}}